Location: Brunn
(48.5000°N, 15.4167°E)
Time: 23:56:14
(UTC+00:00)

Daily predictions for brighter satellites

Satellite Brightness Start Highest point End
(mag) Time Altitude Azimuth Time Altitude Azimuth Time Altitude Azimuth
Cosmos 1486 Rocket 4.1 16:33:08 10° NNW 16:38:29 85° ENE 16:43:49 10° SSE
Unknown 4.4 16:35:02 10° SSW 16:38:52 37° SE 16:42:41 10° ENE
Intercosmos 25 4.5 16:35:25 10° SSW 16:39:52 49° W 16:43:11 10° N
Unknown 4.3 16:36:44 10° SSW 16:40:35 38° SE 16:44:26 10° ENE
SMAP 3.9 16:37:30 10° S 16:42:04 58° W 16:46:41 10° NNW
Unknown 4.3 16:38:20 10° SSW 16:42:11 39° SE 16:46:04 10° ENE
Cosmos 1354 Rocket 4.2 16:37:40 10° NNW 16:42:47 51° ENE 16:47:52 10° SE
SL-14 R/B 3.4 16:39:41 10° NNW 16:43:33 81° W 16:47:23 10° S
Unknown 4.3 16:39:56 10° SSW 16:43:48 39° SE 16:47:40 10° ENE
Meteor 1-21 Rocket 4.4 16:38:15 10° N 16:44:07 60° ENE 16:49:51 10° SSE
Unknown 4.3 16:40:34 10° SSW 16:44:26 40° SE 16:48:21 10° ENE
Unknown 4.3 16:43:07 10° SSW 16:46:59 39° SE 16:50:51 10° ENE
CZ-4 R/B 1.7 16:43:16 10° SE 16:47:16 50° ENE 16:51:21 10° N
Cosmos 2285 Rocket 4.1 16:41:27 10° NNW 16:47:54 66° ENE 16:54:17 10° SE
Cosmos 1844 Rocket 3.2 16:42:42 10° S 16:47:56 40° ESE 16:53:11 10° NE
NOSS 2-1 (C) 4.4 16:43:35 10° NW 16:48:47 72° NE 16:56:04 10° SE
FALCON 9 DEB 4.0 16:46:05 10° W 16:49:25 42° N 16:52:46 10° ENE
Unknown 4.0 16:46:26 10° W 16:49:50 45° NNW 16:53:15 10° ENE
Unknown 4.2 16:46:25 10° SSW 16:50:19 41° SE 16:54:14 10° ENE
Unknown 4.2 16:48:02 10° SSW 16:51:56 42° SE 16:55:52 10° ENE
NOSS 2-1 (D) 4.4 16:46:52 10° NW 16:52:06 75° NE 16:59:26 10° SE
Cosmos 1242 Rocket 3.7 16:49:29 10° NNE 16:52:33 24° ENE 16:55:38 10° SE
Unknown 3.4 16:49:34 10° WSW 16:53:29 84° SSE 16:57:23 10° ENE
Unknown 4.1 16:49:50 10° SW 16:53:49 47° SE 16:57:48 10° ENE
Cosmos 1606 Rocket 3.9 16:49:55 10° SSE 16:54:06 44° E 16:58:16 10° NNE
Unknown 4.1 16:51:17 10° SW 16:55:14 44° SE 16:59:08 10° ENE
Meteor 2-12 Rocket 4.4 16:50:36 10° N 16:56:46 71° ENE 17:02:54 10° SSE
Unknown 4.1 16:52:58 10° SW 16:56:56 46° SE 17:00:46 11° ENE
Cosmos 1470 2.8 16:53:48 10° S 16:57:47 90° E 17:01:48 10° N
Unknown 3.3 16:55:48 10° WNW 16:58:19 37° NNE 17:00:24 14° E
Unknown 3.5 16:54:34 10° WSW 16:58:23 81° NNW 17:02:11 10° ENE
Cosmos 968 Rocket 3.5 16:53:45 10° NNW 16:59:04 75° ENE 17:04:20 10° SSE
Cosmos 1302 Rocket 4.3 16:54:20 10° SSW 16:59:31 73° WNW 17:04:48 10° NNE
ASTEX 1 3.6 16:55:03 10° NNE 16:59:53 50° E 17:04:41 10° SSE
Cosmos 1758 Rocket 3.5 16:55:35 10° N 17:00:02 82° ENE 17:04:31 10° SSE
Unknown 4.0 16:56:13 10° SW 17:00:12 48° SE 17:03:55 12° ENE
Unknown 3.7 16:57:02 10° WSW 17:00:44 63° NNW 17:04:20 11° ENE
Cosmos 2278 Rocket 3.7 16:59:11 10° SE 17:01:49 13° E 17:04:27 10° ENE
Unknown 4.0 16:57:54 10° SW 17:01:55 49° SE 17:05:34 12° ENE
Ariane Rocket 3.7 16:58:29 10° SE 17:03:00 33° ENE 17:07:33 10° N
Unknown 3.9 16:59:32 10° SW 17:03:33 50° SE 17:07:09 13° ENE
Cosmos 1844 4.1 16:58:41 10° S 17:04:00 43° ESE 17:09:25 10° NE
Unknown 3.9 17:01:13 10° SW 17:05:14 52° SE 17:08:47 13° ENE
Unknown 4.1 17:02:13 10° WNW 17:05:27 38° N 17:08:17 13° ENE
Unknown 3.8 17:04:30 10° SW 17:08:32 55° SE 17:11:57 14° ENE
Cosmos 1503 Rocket 4.0 17:03:45 10° NNW 17:08:58 86° ENE 17:14:08 10° SSE
Unknown 3.8 17:06:13 10° SW 17:10:17 58° SSE 17:13:40 14° ENE
Unknown 3.7 17:06:23 10° SW 17:10:28 62° SSE 17:13:54 14° ENE
CZ-4C R/B 3.3 17:04:26 10° NW 17:11:33 70° SW 17:19:41 10° SSE
Unknown 3.7 17:07:58 10° SW 17:12:04 62° SSE 17:15:26 15° ENE
Cosmos 839 Rocket 4.2 17:06:05 10° NNW 17:12:09 56° NE 17:18:46 10° SE
YAOGAN 6 2.5 17:08:35 10° SSE 17:12:16 85° E 17:15:57 10° N
Falcon 9 debris 4.1 17:09:36 10° WNW 17:12:51 38° N 17:15:25 15° ENE
Cosmos 1992 Rocket 4.0 17:07:46 10° S 17:12:54 60° ESE 17:18:03 10° NNE
SKYMED 2 3.5 17:09:03 10° NNE 17:13:26 78° ESE 17:17:46 10° S
Unknown 4.1 17:10:32 10° WNW 17:13:51 39° N 17:16:29 15° ENE
Unknown 3.7 17:11:02 10° SW 17:15:06 60° SSE 17:18:18 16° ENE
Unknown 3.7 17:14:21 10° SW 17:18:27 63° SSE 17:21:30 17° ENE
ATLAS 5 CENTAUR R/B 1.5 17:15:31 10° SW 17:19:47 84° SE 17:24:38 10° NE
Unknown 3.7 17:16:03 10° SW 17:20:09 65° SSE 17:23:10 18° ENE
H-2A R/B 3.5 17:19:01 16° E 17:20:57 19° ENE 17:24:39 10° NNE
YAOGAN 1 2.5 17:16:45 10° SSE 17:21:05 86° ENE 17:25:27 10° NNW
Unknown 3.6 17:17:39 10° SW 17:21:46 66° SSE 17:24:42 18° ENE
Unknown 3.6 17:19:21 10° SW 17:23:28 68° SSE 17:26:20 19° ENE
Unknown 3.7 17:25:11 10° WNW 17:28:09 40° NNE 17:29:30 25° ENE
SL-4 R/B 2.4 17:25:15 10° WNW 17:29:02 51° SSW 17:31:41 16° SE
Gbstr 26 Del rocket 4.2 17:23:41 10° WNW 17:29:38 67° N 17:34:52 20° E
Unknown 3.5 17:25:57 10° WSW 17:30:02 80° SSE 17:32:40 21° ENE
Unknown 3.6 17:25:57 10° SW 17:30:05 74° SSE 17:32:43 22° ENE
Unknown 3.5 17:27:35 10° SW 17:31:44 76° SSE 17:34:17 22° ENE
EO 1 Delta rocket 3.7 17:28:10 10° SSE 17:32:48 75° ENE 17:37:34 10° N
Cosmos 2263 Rocket 4.1 17:28:14 10° WSW 17:33:08 29° NW 17:38:03 10° NNE
CSL-04 Rocket 3.9 17:27:44 10° S 17:33:18 77° WSW 17:38:50 10° NNW
Unknown 3.5 17:29:17 10° WSW 17:33:25 78° SSE 17:35:55 23° ENE
NOAA 11 4.1 17:28:21 10° SSE 17:33:45 67° ENE 17:39:10 10° N
Unknown 3.5 17:30:55 10° WSW 17:35:04 79° SSE 17:37:30 24° ENE
CZ-2D R/B 3.1 17:31:16 10° SSE 17:35:04 69° ENE 17:38:56 10° N
Unknown 3.5 17:32:33 10° WSW 17:36:42 81° SSE 17:39:04 25° ENE
Cosmos 1726 Rocket 3.6 17:32:20 10° S 17:36:45 84° W 17:41:10 10° N
Cosmos 1271 Rocket 3.5 17:33:44 10° NNW 17:37:37 55° W 17:41:30 10° S
Cosmos 1461 4.1 17:35:17 10° NNW 17:38:37 24° NE 17:39:33 22° ENE
HJ-1C 3.7 17:37:06 25° SE 17:38:38 43° ENE 17:41:52 10° N
Unknown 3.5 17:35:56 10° WSW 17:40:05 84° SSE 17:42:20 26° ENE
FREGAT/IRIS 4.4 17:43:06 17° NNE 17:43:06 17° NNE 17:44:05 10° N
Starlink (trailer) 3.5 17:37:34 10° WSW 17:41:43 86° SSE 17:43:54 27° ENE
BREEZE M DEB (TANK) 2.3 17:39:28 10° W 17:41:49 61° SSW 17:44:18 23° ESE
Cosmos 1605 Rocket 3.9 17:36:44 10° N 17:42:58 65° ENE 17:49:03 10° SSE
Unknown 3.5 17:39:15 10° WSW 17:43:24 87° SSE 17:45:31 28° ENE
Cosmos 2058 Rocket 2.9 17:39:34 10° S 17:43:55 77° E 17:48:18 10° NNE
Cosmos 1953 3.5 17:40:10 10° SSW 17:44:06 46° WNW 17:48:03 10° N
Unknown 3.6 17:40:41 10° WSW 17:44:44 76° NNW 17:46:49 28° ENE
Unknown 3.5 17:40:52 10° WSW 17:45:01 89° SSE 17:47:05 29° ENE
Lacrosse 5 2.7 17:40:55 10° NW 17:45:39 38° NNE 17:47:59 24° ENE
Shenzhou-11 Module 3.7 17:44:36 10° SW 17:46:27 19° S 17:46:27 19° S
Cosmos 1833 Rocket 3.1 17:42:01 10° NNW 17:47:21 41° NE 17:49:44 28° ESE
SJ-6B 3.9 17:49:22 25° NE 17:49:22 25° NE 17:51:59 10° N
Cosmos 1727 Rocket 4.3 17:44:15 10° SSE 17:49:59 42° E 17:55:44 10° NNE
Cosmos 1703 3.1 17:46:00 10° N 17:49:59 85° E 17:53:55 10° S
IRS-1A Rocket 4.1 17:45:57 10° SSE 17:51:27 72° ENE 17:56:57 10° NNW
Unknown 3.6 17:47:30 10° WSW 17:51:40 85° NNW 17:53:28 33° ENE
Unknown 3.6 17:47:35 10° WSW 17:51:45 84° NNW 17:53:32 33° ENE
Unknown 3.6 17:48:23 10° WSW 17:52:32 84° NNW 17:54:17 34° ENE
Cosmos 2228 3.8 17:49:40 10° SSW 17:53:57 53° WNW 17:58:16 10° N
ARGOS 3.9 17:52:56 29° E 17:54:02 31° ENE 17:58:46 10° N
MOS 1 4.3 17:49:20 11° SSE 17:54:41 61° ENE 18:00:16 10° N
Unknown 3.6 17:52:31 10° WSW 17:56:40 81° NNW 17:58:16 36° ENE
Unknown 3.6 17:52:32 10° WSW 17:56:40 81° NNW 17:58:17 36° ENE
Resurs 01 Rocket 3.6 17:58:05 15° NE 17:58:05 15° NE 17:59:33 10° NNE
COSMOS 2406 3.2 17:52:12 10° NNW 17:58:01 90° N 18:02:53 15° SSE
Unknown 3.6 17:54:17 10° WSW 17:58:26 78° NNW 17:59:59 37° ENE
Cosmos 1934 Rocket 4.4 17:53:19 10° NNW 17:59:35 68° W 18:05:53 10° S
COSMO-SKYMED 1 4.2 17:57:26 10° N 18:01:26 36° WNW 18:05:24 10° SW
Unknown 3.7 17:57:36 10° WSW 18:01:45 75° NNW 18:03:10 40° NE
Unknown 3.7 17:58:15 10° WSW 18:02:23 76° NNW 18:03:45 41° NE
Cosmos 2082 Rocket 2.8 17:57:20 10° NNW 18:02:42 39° NE 18:04:05 34° E
Unknown 3.7 17:59:12 10° WSW 18:03:21 75° NNW 18:04:40 42° NE
Cosmos 1726 2.3 18:00:02 10° SSW 18:03:41 68° WNW 18:07:21 10° N
Meteor 1-11 4.3 17:59:11 10° NNW 18:04:57 85° W 18:10:44 10° S
Cosmos 1939 Rocket 3.3 18:01:20 10° S 18:05:15 62° W 18:09:15 10° NNW
Cosmos 2173 Rocket 4.4 17:59:39 10° N 18:05:33 39° ENE 18:07:03 34° ESE
Cosmos 921 Rocket 3.3 18:02:01 10° SSW 18:06:30 70° WNW 18:11:00 10° NNE
Unknown 3.7 18:02:24 10° WSW 18:06:34 75° NNW 18:07:45 45° NE
Cosmos 292 Rocket 3.6 18:02:13 10° SSW 18:06:57 73° ESE 18:11:42 10° NNE
ATLAS CENTAUR R/B 4.2 18:06:55 10° NNW 18:08:07 11° N 18:09:18 10° NNE
Unknown 3.7 18:05:51 10° WSW 18:10:00 71° NNW 18:11:03 47° NE
Unknown 3.7 18:07:30 10° WSW 18:11:39 70° NNW 18:12:38 49° NE
Unknown 3.8 18:09:13 10° WSW 18:13:22 68° NNW 18:14:17 50° NE
Cosmos 1356 4.0 18:10:37 10° SSW 18:14:00 56° WNW 18:17:25 10° N
Unknown 3.8 18:10:53 10° WSW 18:15:01 67° NNW 18:15:52 51° NE
Lacrosse 5 rocket 2.8 18:12:42 10° WNW 18:16:04 30° SW 18:17:44 21° S
Unknown 3.8 18:14:11 10° WSW 18:18:19 65° NNW 18:19:01 54° NNE
SJ 16-02 3.6 18:16:39 10° NNE 18:17:39 13° NNE 18:17:39 13° NNE
Unknown 3.8 18:15:56 10° WSW 18:20:04 64° NNW 18:20:42 55° NNE
Cosmos 2100 Rocket 4.0 18:15:25 10° N 18:21:31 54° ENE 18:23:03 43° ESE
Unknown 3.8 18:17:33 10° W 18:21:41 63° NNW 18:22:15 56° NNE
Cosmos 2084 4.1 18:17:30 10° WSW 18:21:58 58° NW 18:24:06 29° NNE
CZ-4 R/B 4.3 18:19:42 10° SW 18:22:35 18° W 18:25:30 10° NW
Unknown 3.8 18:19:10 10° W 18:23:17 63° NNW 18:23:46 57° NNE
Unknown 3.8 18:19:49 10° W 18:23:56 62° NNW 18:24:25 57° NNE
Unknown 3.8 18:22:20 10° W 18:26:27 63° NNW 18:26:49 60° N
FALCON 9 DEB 4.3 18:23:37 10° WNW 18:26:23 38° NNW 18:26:23 38° NNW
Unknown 4.3 18:24:10 10° WNW 18:27:00 38° NNW 18:27:00 38° NNW
Unknown 3.9 18:25:43 10° W 18:29:50 61° NNW 18:30:02 60° N
ADEOS Rocket 3.6 18:23:03 10° NNE 18:30:41 54° E 18:37:54 10° S
Unknown 3.9 18:27:21 10° W 18:31:28 60° NNW 18:31:36 60° N
Cosmos 1844 Rocket 4.0 18:26:33 10° WSW 18:31:51 40° NW 18:37:09 10° NNE
Unknown 4.3 18:28:37 10° W 18:32:18 44° N 18:32:18 44° N
Cosmos 1153 Rocket 4.4 18:27:12 10° N 18:33:23 84° W 18:38:15 17° S
Unknown 4.0 18:29:18 10° W 18:33:23 57° NNW 18:33:28 57° N
In-Cosmos 22 Rocket 4.4 18:28:43 10° N 18:33:20 48° NE 18:33:20 48° NE
Cosmos 1908 4.2 18:30:16 10° SSW 18:34:03 47° WNW 18:37:51 10° N
Unknown 4.0 18:30:41 10° W 18:34:47 59° NNW 18:34:47 59° NNW
Unknown 4.0 18:32:24 10° W 18:36:25 58° NNW 18:36:25 58° NNW
Unknown 4.5 18:33:26 10° WNW 18:36:44 40° NNW 18:36:44 40° NNW
Unknown 4.1 18:35:42 10° W 18:39:34 56° NNW 18:39:34 56° NNW
SPOT 3 Rocket 3.4 18:39:52 65° SSE 18:40:39 87° ENE 18:45:54 10° NNW
Unknown 4.2 18:37:25 10° W 18:41:14 54° NW 18:41:14 54° NW
Ariane Rocket 4.3 18:37:09 10° SSW 18:41:53 38° W 18:46:40 10° NNW
Unknown 4.2 18:39:05 10° W 18:42:48 53° NW 18:42:48 53° NW
Unknown 4.3 18:40:47 10° W 18:44:26 52° NW 18:44:26 52° NW
Cosmos 2278 Rocket 2.0 18:39:17 10° SSW 18:44:57 80° ESE 18:46:33 49° NE
Unknown 4.4 18:44:07 10° W 18:47:37 49° NW 18:47:37 49° NW
Cosmos 2016 Rocket 4.1 18:42:29 10° N 18:48:08 54° ENE 18:48:08 54° ENE
USA 238 DEB 4.3 18:43:19 10° SSW 18:47:26 36° S 18:47:26 36° S
USA 238 4.4 18:43:26 10° SSW 18:47:27 35° S 18:47:27 35° S
Cosmos 2058 4.3 18:45:54 10° N 18:48:12 32° N 18:48:12 32° N
Cosmos 2061 Rocket 4.0 18:44:21 10° N 18:50:16 60° ENE 18:50:16 60° ENE
USA 234 3.8 18:57:29 40° S 18:57:29 40° S 19:02:04 10° SSW
H-2A R/B 2.1 18:59:39 78° WSW 18:59:44 79° WSW 19:05:09 10° NNW
ATLAS 5 CENTAUR R/B 3.7 19:01:20 10° W 19:05:05 25° NNW 19:07:08 19° N
CZ-2C R/B 3.4 19:10:54 68° N 19:10:54 68° N 19:16:00 10° NNW
Gbstr 26 Del rocket 4.1 19:10:41 10° WNW 19:17:15 79° SSW 19:17:24 79° S
NOSS 3-3 (A) 4.4 19:13:12 10° NW 19:20:40 86° SW 19:21:23 76° SSE
NOSS 3-3 (C) 4.4 19:13:18 10° NW 19:20:46 87° SW 19:21:28 77° SSE
Lacrosse 5 3.1 19:23:58 10° NW 19:27:11 40° WNW 19:27:11 40° WNW
Cosmos 1833 Rocket 3.8 19:26:07 10° NW 19:31:15 37° WSW 19:31:27 37° WSW
Resurs 01 Rocket 3.9 19:35:40 21° NNW 19:35:40 21° NNW 19:37:10 10° NNW
ARGOS 4.1 19:34:27 45° W 19:34:27 45° W 19:39:22 10° NNW
Cosmos 1802 Rocket 4.4 19:32:31 10° NNW 19:38:50 58° W 19:38:55 58° W
Cosmos 2082 Rocket 3.4 19:41:30 10° NW 19:45:57 38° W 19:45:57 38° W
ATLAS CENTAUR R/B 4.4 19:46:00 10° NNW 19:46:39 12° N 19:46:39 12° N
SJ 16-02 4.2 19:54:06 10° NNW 19:54:38 13° NNW 19:54:38 13° NNW
Cosmos 2278 Rocket 4.3 20:25:13 10° W 20:35:55 - NNE 20:28:36 22° WNW
